Flag for Estonia Weather past 2 weeks in Tartu, Estonia

Now
45 °F

Clear.


Feels Like: 45 °F
Forecast: 48 / 70 °F
Wind: No wind

Location: Tartu/Ulenurme

Current Time: Sep 3, 2014 at 9:09:41 AM

Latest Report: Sep 3, 2014 at 7:50 AM


Visibility: 6 mi

Pressure: 30.39 "Hg

Humidity: 93%

Dew point: 43 °F

Location of TartuLocation

Historic Weather in Tartu — Graph

°F

Tartu temperature yesterday

Maximum temperature yesterday: 61 °F (at 12:50 PM)
Minimum temperature yesterday: 43 °F (at 2:50 AM)
Average temperature yesterday: 54 °F

Past Weeks' High & Low Weather Summary

 TemperatureHumidityPressure
High68 °F (Aug 20, 1:50 PM)100% (Aug 29, 5:50 AM)30.39 "Hg (Aug 29, 5:50 AM)
Low39 °F (Sep 3, 4:50 AM)49% (Aug 20, 1:50 PM)29.39 "Hg (Aug 27, 7:50 AM)
Average55 °F82%29.83 "Hg
* Reported Aug 19 7:50 AM — Sep 3 7:50 AM, Tartu, Weather by CustomWeather, © 2014

Note: Actual official high and low records may vary slightly from our data, if they occured in-between our weather recording intervals... More about our weather records

Advertising

Tartu weather history for previous 24 hours

 ConditionsComfort  
Time TempWeatherWind HumidityBarometerVisibility
7:50 AM
Sep 3
45 °FClear.No wind93%30.39 "Hg6 mi
6:50 AM39 °FSleet. Overcast.No wind93%30.39 "Hg1 mi
5:50 AM39 °FFog.No wind93%30.36 "Hg1 mi
4:50 AM39 °FLight fog.No wind93%30.36 "HgN/A
3:50 AM41 °FFog.No wind93%30.36 "HgN/A
2:50 AM43 °FQuite cool.2 mph93%30.36 "Hg4 mi
1:50 AM43 °FFog.2 mph93%30.36 "Hg2 mi
12:50 AM45 °FQuite cool.1 mph93%30.33 "Hg2 mi
11:50 PM
Sep 2
46 °FCool.No wind87%30.33 "Hg2 mi
10:50 PM48 °FCool.2 mph87%30.33 "Hg5 mi
9:50 PM52 °FPassing clouds.2 mph88%30.30 "Hg5 mi
8:50 PM55 °FOvercast.1 mph82%30.30 "HgN/A
7:50 PM57 °FOvercast.2 mph72%30.27 "HgN/A
6:50 PM57 °FPassing clouds.5 mph67%30.27 "HgN/A
5:50 PM61 °FPartly sunny.2 mph55%30.27 "HgN/A
4:50 PM59 °FPartly sunny.5 mph59%30.27 "HgN/A
3:50 PM61 °FPartly sunny.5 mph55%30.27 "HgN/A
2:50 PM59 °FPartly sunny.7 mph59%30.27 "HgN/A
1:50 PM59 °FPartly sunny.7 mph59%30.27 "HgN/A
12:50 PM61 °FPartly sunny.8 mph55%30.27 "HgN/A
11:50 AM59 °FPartly sunny.7 mph59%30.27 "HgN/A
10:50 AM57 °FScattered clouds.8 mph63%30.24 "HgN/A
9:50 AM55 °FScattered clouds.7 mph67%30.24 "HgN/A
Weather by CustomWeather, © 2014

See weather overviewHow to use our weather pages